Location: Avon Lake
(41.5219°N, 93.5010°W)
Time: 00:58:19
(UTC+00:00)

Tiangong - Pass Details

Date: 27 April 2024
Orbit: 372 x 375 km, 41.5° (Epoch: 20 May)

Event Time Altitude Azimuth Distance (km) Brightness Sun altitude
Rises 01:42:03 0° 279° (W) 2,263 3.5 -6.9°
Reaches altitude 10° 01:44:09 10° 275° (W) 1,405 2.0 -7.2°
Maximum altitude 01:47:16 55° 196° (SSW) 464 -1.8 -7.7°
Enters shadow 01:50:08 12° 118° (ESE) 1,303 -0.2 -8.2°
